FW3258 Weather Reports


time (UTC)temp
C
wind
direction
speed
KPH
gust
KPH
rain 1hr
cm
rain 24hr
cm
rain mn
cm
humidity
%
barometer
mb
20260901115307 23 277 11.3 14.5 0.00 0.53 0.03 88 1018.5
20260901113308 23 270 6.4 6.4 0.00 0.56 0.03 85 1018.3
20260901112404 23 240 6.4 9.7 0.00 0.56 0.03 85 1018.3
20260901111407 23 270 8.0 9.7 0.00 0.56 0.03 83 1018.3
20260901110406 23 291 6.4 8.0 0.00 0.56 0.03 84 1018.1
20260901104405 23 255 3.2 6.4 0.00 0.56 0.03 84 1017.9
20260901102406 23 225 4.8 4.8 0.00 0.56 0.03 82 1017.9
20260901100407 23 247 4.8 4.8 0.00 0.56 0.03 81 1017.6
20260901100305 23 247 4.8 4.8 0.00 0.56 0.03 82 1017.6
20260901095306 23 270 9.7 14.5 0.00 0.56 0.03 82 1017.6
20260901094405 23 270 11.3 11.3 0.00 0.56 0.03 83 1017.6
20260901093405 22 270 4.8 6.4 0.00 0.56 0.03 84 1017.7
20260901092504 22 247 4.8 4.8 0.00 0.56 0.03 87 1017.6
20260901091505 22 214 6.4 6.4 0.03 0.56 0.03 88 1017.5
20260901090506 22 207 0.0 1.6 0.03 0.56 0.03 90 1017.7
20260901085524 22 191 4.8 6.4 0.03 0.56 0.03 91 1017.6
20260901084506 21 232 3.2 6.4 0.03 0.56 0.03 93 1017.5
20260901083605 21 225 0.0 4.8 0.03 0.56 0.03 95 1017.4
20260901081606 21 247 0.0 0.0 0.00 0.53 0.00 97 1017.7
20260901080606 21 219 1.6 6.4 0.00 0.53 0.00 98 1017.8
20260901075605 21 157 0.0 1.6 0.00 0.53 0.00 98 1017.7
20260901074607 20 236 1.6 3.2 0.00 0.56 0.00 98 1018.0
20260901073607 20 270 6.4 6.4 0.00 0.58 0.00 99 1018.2
20260901072621 20 225 0.0 0.0 0.00 0.58 0.00 99 1018.3
20260901070706 20 180 0.0 0.0 0.00 0.64 0.00 99 1018.5
20260901065803 20 165 1.6 4.8 0.00 0.66 0.00 100 1018.6
20260901064806 20 156 3.2 6.4 0.00 0.66 0.00 100 1018.8
20260901063805 19 157 0.0 1.6 0.00 0.69 0.00 99 1018.9
20260901062806 19 180 0.0 3.2 0.00 0.69 0.00 99 1019.1
20260901061804 19 180 0.0 0.0 0.00 0.69 0.00 98 1019.4
20260901060807 19 180 1.6 3.2 0.00 0.69 0.00 98 1019.1
20260901055806 19 180 3.2 4.8 0.00 0.69 0.00 99 1019.2
20260901054808 19 180 0.0 1.6 0.00 0.69 0.00 99 1019.4
20260901053905 19 180 3.2 4.8 0.00 0.69 0.00 98 1019.4
20260901052921 19 180 3.2 3.2 0.00 0.69 0.00 99 1019.4
20260901051905 19 180 3.2 3.2 0.00 0.69 0.00 99 1019.7
20260901050006 19 180 1.6 1.6 0.00 0.69 0.00 99 1019.9
20260901045006 19 67 0.0 1.6 0.00 0.69 0.00 99 1020.0
20260901044005 19 91 1.6 4.8 0.00 0.69 0.00 99 1020.0
20260901042105 19 67 0.0 0.0 0.00 0.69 0.00 98 1020.2
20260901041107 19 67 1.6 3.2 0.00 0.69 0.00 98 1020.0
20260901040106 19 360 0.0 0.0 0.00 0.69 0.00 98 1020.1
20260901035114 19 67 0.0 0.0 0.00 0.71 0.69 98 1020.1
20260901034116 19 67 0.0 0.0 0.00 0.71 0.69 98 1020.1
20260901033116 19 67 0.0 0.0 0.00 0.71 0.69 98 1020.2
20260901033013 19 67 0.0 0.0 0.00 0.71 0.69 98 1020.1
20260901032015 19 67 0.0 1.6 0.00 0.71 0.69 98 1020.3
20260901031114 19 67 0.0 0.0 0.00 0.76 0.69 98 1020.4
20260901023213 20 157 1.6 1.6 0.00 0.94 0.69 98 1020.7
20260901022213 20 157 0.0 0.0 0.00 0.97 0.69 97 1020.8
20260901021217 19 157 0.0 1.6 0.00 0.99 0.69 97 1021.1
20260901015214 20 157 0.0 0.0 0.00 1.04 0.69 96 1021.1
20260901014313 20 157 0.0 0.0 0.00 1.04 0.69 97 1021.0
20260901013316 20 157 0.0 0.0 0.00 1.04 0.69 97 1021.0
20260901012414 20 157 0.0 0.0 0.00 1.04 0.69 97 1021.0
20260901012316 20 157 0.0 0.0 0.00 1.04 0.69 97 1021.1
20260901010416 20 157 3.2 3.2 0.00 1.07 0.69 96 1021.1
20260901005416 20 157 0.0 1.6 0.00 1.07 0.69 96 1021.0
20260901004515 20 157 0.0 0.0 0.00 1.07 0.69 96 1021.0
20260901003529 20 157 0.0 0.0 0.00 1.07 0.69 94 1021.0
20260901002618 20 157 0.0 0.0 0.00 1.07 0.69 94 1020.9
20260901001614 20 189 0.0 0.0 0.00 1.07 0.69 95 1020.7
20260901000614 20 244 1.6 3.2 0.00 1.07 0.69 95 1020.7
20260831235615 20 262 1.6 3.2 0.00 1.07 0.69 95 1020.8
20260831234616 21 270 4.8 6.4 0.00 1.07 0.69 95 1020.8
20260831232615 21 229 0.0 0.0 0.00 1.07 0.69 95 1020.7
20260831231616 21 238 1.6 3.2 0.00 1.09 0.69 94 1020.7
20260831230713 21 214 3.2 4.8 0.00 1.09 0.69 93 1020.7
20260831225716 21 270 3.2 4.8 0.00 1.09 0.69 94 1020.8
20260831224813 21 281 4.8 6.4 0.00 1.12 0.69 95 1020.8
20260831223817 21 270 1.6 3.2 0.00 1.12 0.69 94 1020.9
20260831222817 21 252 6.4 8.0 0.00 1.12 0.69 95 1021.0
20260831221013 21 273 9.7 9.7 0.00 1.12 0.69 94 1021.0
20260831220014 21 281 8.0 9.7 0.00 1.12 0.69 94 1021.3
20260831215015 21 282 4.8 6.4 0.00 1.12 0.69 95 1021.2
20260831214017 21 270 4.8 4.8 0.00 1.12 0.69 94 1020.9
20260831213114 21 270 6.4 8.0 0.00 1.12 0.69 94 1021.2
20260831212117 21 258 3.2 4.8 0.00 1.12 0.69 95 1021.1
20260831212013 21 229 3.2 4.8 0.00 1.12 0.69 96 1021.1
20260831211015 21 270 6.4 9.7 0.00 1.12 0.69 96 1021.0
20260831210916 21 265 6.4 8.0 0.00 1.12 0.69 96 1021.1
20260831210013 21 257 9.7 11.3 0.03 1.12 0.69 96 1021.0
20260831205017 21 247 1.6 3.2 0.03 1.12 0.69 96 1021.0
20260831204113 21 247 6.4 6.4 0.05 1.12 0.69 95 1020.8
20260831203131 21 247 6.4 6.4 0.05 1.12 0.69 95 1020.8
20260831202116 21 247 4.8 4.8 0.05 1.12 0.69 94 1020.9
20260831201130 21 270 6.4 8.0 0.05 1.12 0.69 94 1021.0
20260831200215 21 255 8.0 9.7 0.03 1.09 0.66 95 1021.1
20260831195215 22 236 1.6 3.2 0.08 1.09 0.66 95 1021.0
20260831194215 21 232 1.6 4.8 0.13 1.07 0.64 96 1021.3
20260831193214 21 180 0.0 0.0 0.18 1.07 0.64 95 1021.3
20260831192215 21 180 0.0 0.0 0.18 1.07 0.64 94 1021.5
20260831190314 21 225 0.0 0.0 0.18 1.07 0.64 93 1021.6
20260831185315 21 247 4.8 8.0 0.15 1.04 0.58 92 1021.7
20260831184314 22 270 1.6 1.6 0.05 0.94 0.51 91 1021.9
20260831184215 22 270 3.2 4.8 0.05 0.94 0.51 91 1021.9
20260831183214 22 250 4.8 8.0 0.00 0.89 0.46 92 1022.0
20260831180314 21 265 4.8 4.8 0.00 0.89 0.46 94 1021.9
20260831180215 21 270 3.2 4.8 0.00 0.89 0.46 94 1021.7
20260831175314 21 250 3.2 6.4 0.00 0.89 0.46 94 1021.8
20260831174314 21 261 9.7 14.5 0.00 0.89 0.46 97 1021.8
20260831173315 21 247 4.8 6.4 0.00 0.89 0.46 98 1021.7
20260831171414 21 258 3.2 4.8 0.05 0.89 0.46 98 1022.0
20260831170415 20 215 3.2 8.0 0.05 0.89 0.46 99 1022.1
20260831165415 20 228 4.8 9.7 0.05 0.89 0.46 100 1022.1
20260831164414 19 157 0.0 0.0 0.05 0.89 0.46 99 1022.0
20260831163414 18 202 6.4 6.4 0.05 0.89 0.46 99 1022.2
20260831161413 18 225 3.2 3.2 0.00 0.84 0.41 99 1022.5
20260831154414 -17 0 0.0 0.0 0.00 0.91 0.00 100
20260831152515 -17 0 0.0 0.0 0.00 0.91 0.00 100
20260831151514 18 67 0.0 0.0 0.00 0.91 0.41 99 1022.9
20260831150529 -17 0 0.0 0.0 0.03 0.91 0.00 100
20260831145515 -17 0 0.0 0.0 0.08 0.91 0.00 100
20260831144613 -17 0 0.0 0.0 0.10 0.91 0.00 100
20260831143614 -17 0 0.0 0.0 0.13 0.91 0.00 100
20260831141624 18 157 0.0 0.0 0.23 0.91 0.41 99 1022.5
20260831140723 18 67 0.0 0.0 0.20 0.89 0.38 99 1022.5
20260831134824 17 258 0.0 0.0 0.13 0.81 0.30 99 1022.5
20260831133824 17 255 0.0 0.0 0.10 0.79 0.28 100 1022.6
20260831132824 17 234 4.8 4.8 0.10 0.79 0.28 100 1022.5
20260831131825 17 202 0.0 0.0 0.00 0.69 0.18 99 1022.5
20260831125926 17 180 0.0 3.2 0.00 0.69 0.18 100 1022.2
20260831124925 17 180 0.0 0.0 0.00 0.69 0.18 100 1022.2
20260831123925 17 180 1.6 3.2 0.00 0.69 0.18 100 1022.3
20260831122926 17 87 1.6 3.2 0.03 0.69 0.18 99 1022.3
20260831121925 17 157 0.0 0.0 0.03 0.69 0.18 99 1022.4
20260831121024 17 157 0.0 0.0 0.03 0.69 0.18 100 1022.8
20260831120025 17 157 0.0 1.6 0.03 0.69 0.18 100 1022.5